Tracking 21676 objects as of 29-Oct-2020
HD Live streaming from Space Station
objects crossing your sky now

COSMOS 1341

Track COSMOS 1341 now!
COSMOS 1341 is classified as:


NORAD ID: 13080
Int'l Code: 1982-016A
Perigee: 2,681.3 km
Apogee: 37,661.4 km
Inclination: 67.6 °
Period: 717.2 minutes
Semi major axis: 26542 km
RCS: 8.091 m2 (large)
Launch date: March 3, 1982
Source: Commonwealth of Independent States (former USSR) (CIS)
Launch site: PLESETSK MISSILE AND SPACE COMPLEX (PKMTR)
aabbcc
Your satellite tracking list
Your tracking list is empty




NASA's NSSDC Master Catalog

Two Line Element Set (TLE):
1 13080U 82016A   20302.20332138 +.00000936 +00000-0 +00000-0 0  9996
2 13080 067.6164 133.4752 6589482 012.0058 358.2755 02.00767877193470
Source of the keplerian elements: AFSPC